Weather History for KMAE - February, 2013

Change the Weather History Date:

Monday, February 4, 2013

  Actual Average Record
Temperature  
Mean Temperature 50 °F 48 °F  
Max Temperature 66 °F 58 °F 76 °F (2015)
Min Temperature 34 °F 39 °F 29 °F (2003)
Degree Days  
Heating Degree Days 15    
Month to date heating degree days 58  
Since 1 July heating degree days 1591  
Cooling Degree Days 0    
Month to date cooling degree days 0  
Year to date cooling degree days 0  
Moisture  
Dew Point 40 °F    
Average Humidity 74    
Maximum Humidity 100    
Minimum Humidity 48    
Precipitation  
Precipitation 0.00 in 0.06 in 0.03 in (2010)
Month to date precipitation 0.00 0.22  
Year to date precipitation 1.23 2.67  
Since 1 July precipitation 5.93  
Snow  
Snow 0.00 in - - ()
Month to date snowfall 0.0  
Since 1 July snowfall 0.0  
Snow Depth 0.00 in    
Sea Level Pressure  
Sea Level Pressure 30.13 in    
Wind  
Wind Speed 2 mph (East)    
Max Wind Speed 7 mph    
Max Gust Speed 15 mph    
Visibility 4 miles    
Events Fog    
T = Trace of Precipitation, MM = Missing Value Source: NWS Daily Summary

Daily Weather History Graph

Daily Weather History Graph

Search for Another Location

Airport or City:

Trip Planner

Search our weather history database for the weather conditions in past years. The results will help you decide how hot, cold, wet, or windy it might be!

Date:

Astronomy

Feb. 04, 2013 Rise Set
Actual Time 7:00 AM PST 5:29 PM PST
Civil Twilight 6:32 AM PST 5:56 PM PST
Nautical Twilight 6:02 AM PST 6:27 PM PST
Astronomical Twilight 5:31 AM PST 6:57 PM PST
Moon 1:39 AM PST (2/4) 11:59 AM PST (2/4)
Length of Visible Light 11h 23m
Length of Day
10h 29m
Last Quarter, 36% of the Moon is Illuminated
Feb 4
Last Quarter
Feb 9
New
Feb 17
First Quarter
Feb 25
Full
Mar 4
Last Quarter

Hourly Weather History & Observations

Time (PST) Temp. Windchill Dew Point Humidity Pressure Visibility Wind Dir Wind Speed Gust Speed Precip Events Conditions
12:09 AM 42.8 °F 40.1 °F 39.2 °F 87% 30.16 in 1.5 mi North 4.6 mph - N/A   Clear
12:24 AM 42.8 °F 41.1 °F 41.0 °F 93% 30.16 in 2.5 mi NNE 3.5 mph - N/A   Clear
12:53 AM 41.0 °F - 39.9 °F 96% 30.15 in 1.8 mi Calm Calm - N/A   Clear
1:04 AM 42.8 °F 41.1 °F 39.2 °F 87% 30.15 in 2.5 mi ENE 3.5 mph - N/A   Clear
2:57 AM 37.4 °F - 37.4 °F 100% 30.16 in 3.0 mi Calm Calm - N/A   Clear
3:53 AM 39.0 °F 36.8 °F 37.0 °F 93% 30.15 in 3.0 mi East 3.5 mph - N/A   Clear
4:53 AM 37.0 °F - 36.0 °F 96% 30.15 in 1.2 mi Calm Calm - N/A   Clear
5:02 AM 37.4 °F - 37.4 °F 100% 30.15 in 0.5 mi Calm Calm - N/A Fog Fog
5:12 AM 37.4 °F 34.9 °F 35.6 °F 93% 30.14 in 2.0 mi ESE 3.5 mph - N/A   Clear
5:26 AM 35.6 °F 32.8 °F 33.8 °F 93% 30.13 in 1.2 mi SSE 3.5 mph - N/A   Partly Cloudy
5:33 AM 35.6 °F - 33.8 °F 93% 30.13 in 0.8 mi Calm Calm - N/A   Mist
5:53 AM 35.1 °F 31.0 °F 34.0 °F 96% 30.14 in 1.0 mi West 4.6 mph - N/A   Mist
6:06 AM 35.6 °F - 35.6 °F 100% 30.14 in 1.5 mi Calm Calm - N/A   Clear
6:28 AM 33.8 °F 30.8 °F 33.8 °F 100% 30.14 in 0.2 mi SSE 3.5 mph - N/A Fog Fog
6:53 AM 35.1 °F - 34.0 °F 96% 30.16 in 1.2 mi Calm Calm - N/A   Overcast
6:57 AM 35.6 °F - 35.6 °F 100% 30.15 in 3.0 mi Calm Calm - N/A   Overcast
7:28 AM 35.6 °F - 35.6 °F 100% 30.16 in 2.5 mi Calm Calm - N/A   Overcast
7:35 AM 35.6 °F - 35.6 °F 100% 30.16 in 3.0 mi Calm Calm - N/A   Overcast
7:44 AM 37.4 °F - 37.4 °F 100% 30.16 in 0.8 mi Calm Calm - N/A   Overcast
7:53 AM 37.9 °F - 37.9 °F 100% 30.17 in 0.2 mi Calm Calm - N/A Fog Fog
8:07 AM 39.2 °F - 39.2 °F 100% 30.17 in 2.5 mi Calm Calm - N/A   Mostly Cloudy
8:10 AM 39.2 °F - 39.2 °F 100% 30.17 in 5.0 mi Calm Calm - N/A   Scattered Clouds
8:53 AM 45.0 °F 42.6 °F 44.1 °F 97% 30.18 in 7.0 mi ESE 4.6 mph - N/A   Clear
9:53 AM 51.1 °F - 46.0 °F 83% 30.19 in 10.0 mi Calm Calm - N/A   Clear
10:53 AM 55.0 °F - 46.0 °F 72% 30.19 in 8.0 mi Calm Calm - N/A   Clear
11:53 AM 59.0 °F - 46.9 °F 64% 30.16 in 8.0 mi SSE 3.5 mph - N/A   Clear
12:53 PM 61.0 °F - 46.9 °F 60% 30.13 in 9.0 mi South 4.6 mph - N/A   Clear
1:53 PM 64.0 °F - 46.0 °F 52% 30.09 in 10.0 mi Variable 3.5 mph - N/A   Clear
2:53 PM 64.9 °F - 45.0 °F 48% 30.07 in 10.0 mi Calm Calm - N/A   Clear
4:53 PM 62.1 °F - 46.0 °F 56% 30.06 in 10.0 mi Calm Calm - N/A   Clear
5:53 PM 57.0 °F - 44.1 °F 62% 30.06 in 10.0 mi WNW 3.5 mph - N/A   Clear
6:53 PM 54.0 °F - 43.0 °F 66% 30.06 in 10.0 mi Calm Calm - N/A   Clear
7:53 PM 52.0 °F - 43.0 °F 71% 30.07 in 10.0 mi Calm Calm - N/A   Clear
8:53 PM 46.9 °F - 42.1 °F 83% 30.08 in 8.0 mi Calm Calm - N/A   Clear
9:53 PM 48.0 °F - 43.0 °F 83% 30.08 in 5.0 mi ENE 4.6 mph - N/A   Haze
10:53 PM 46.0 °F 44.8 °F 42.1 °F 86% 30.08 in 6.0 mi East 3.5 mph - N/A   Clear
11:53 PM 45.0 °F - 42.1 °F 90% 30.08 in 6.0 mi Calm Calm - N/A   Clear